User: anonymous   Login
Location: Unspecified
(0.0000°N, 0.0000°E)
Time: 15:43:59
(UTC+00:00)
Language:

DEMETER - Orbit

View from above orbital plane
View from above orbital plane
View from above satellite
View from above satellite

Ground track
Ground track

The orbit data is extracted from the following two-line orbital elements,

1 28368U 04025C   18293.55312694  .00000126  00000-0  26214-4 0  9994
2 28368  97.7557 275.4362 0002282  98.4389 261.7079 14.74408175767871
Epoch (UTC): 20 October 2018 13:16:30
Eccentricity: 0.0002282
inclination: 97.7557°
perigee height: 645 km
apogee height: 648 km
right ascension of ascending node: 275.4362°
argument of perigee: 98.4389°
revolutions per day: 14.74408175
mean anomaly at epoch: 261.7079°
orbit number at epoch: 76787

The dashed part of the orbit path shows where the satellite is in the earth's shadow,  

DLR